GW4928 Weather Reports


time (UTC)temp
C
wind
direction
speed
KPH
gust
KPH
rain 1hr
cm
rain 24hr
cm
rain mn
cm
humidity
%
barometer
mb
20260906173845 26 68 0.0 4.8 0.00 0.00 0.00 58 1022.6
20260906173341 26 42 0.0 3.2 0.00 0.00 0.00 56 1022.7
20260906172839 26 4 3.2 6.4 0.00 0.00 0.00 58 1022.8
20260906172336 26 158 4.8 6.4 0.00 0.00 0.00 59 1022.6
20260906171831 25 233 1.6 4.8 0.00 0.00 0.00 59 1022.7
20260906171326 25 229 3.2 6.4 0.00 0.00 0.00 60 1022.8
20260906170821 25 2 0.0 4.8 0.00 0.00 0.00 60 1022.8
20260906170317 25 68 1.6 6.4 0.00 0.00 0.00 59 1022.9
20260906165814 25 131 3.2 6.4 0.00 0.00 0.00 59 1022.6
20260906165308 25 34 0.0 1.6 0.00 0.00 0.00 59 1022.9
20260906164807 25 326 3.2 4.8 0.00 0.00 0.00 60 1022.7
20260906164302 25 50 0.0 1.6 0.00 0.00 0.00 58 1023.0
20260906163758 24 90 1.6 4.8 0.00 0.00 0.00 60 1023.0
20260906163254 25 213 3.2 4.8 0.00 0.00 0.00 59 1022.9
20260906162751 25 119 1.6 3.2 0.00 0.00 0.00 59 1022.8
20260906162250 24 348 0.0 3.2 0.00 0.00 0.00 60 1023.0
20260906161745 23 332 1.6 1.6 0.00 0.00 0.00 62 1022.9
20260906161244 23 226 6.4 9.7 0.00 0.00 0.00 63 1022.9
20260906160743 23 231 1.6 4.8 0.00 0.00 0.00 63 1023.0
20260906160237 23 233 6.4 6.4 0.00 0.00 0.00 64 1022.9
20260906155735 25 53 1.6 6.4 0.00 0.00 0.00 60 1023.1
20260906155230 23 63 1.6 3.2 0.00 0.00 0.00 61 1023.2
20260906154725 23 74 1.6 3.2 0.00 0.00 0.00 62 1023.0
20260906154215 24 48 0.0 4.8 0.00 0.00 0.00 61 1023.0
20260906153712 24 95 0.0 6.4 0.00 0.00 0.00 62 1023.0
20260906153207 23 19 0.0 3.2 0.00 0.00 0.00 61 1023.1
20260906152703 23 102 1.6 3.2 0.00 0.00 0.00 62 1023.1
20260906152157 23 318 1.6 4.8 0.00 0.00 0.00 62 1022.9
20260906151652 23 33 0.0 1.6 0.00 0.00 0.00 62 1023.1
20260906151148 22 30 0.0 1.6 0.00 0.00 0.00 63 1023.1
20260906150643 22 46 0.0 1.6 0.00 0.00 0.00 65 1023.2
20260906150138 22 211 3.2 4.8 0.00 0.00 0.00 66 1023.3
20260906145637 22 323 1.6 4.8 0.00 0.00 0.00 66 1023.3
20260906145131 21 88 1.6 1.6 0.00 0.00 0.00 68 1023.3
20260906144626 21 184 1.6 4.8 0.00 0.00 0.00 70 1023.5
20260906144121 21 38 1.6 1.6 0.00 0.00 0.00 69 1023.5
20260906143620 21 30 0.0 3.2 0.00 0.00 0.00 68 1023.3
20260906143118 20 53 1.6 3.2 0.00 0.00 0.00 71 1023.4
20260906142617 21 69 1.6 3.2 0.00 0.00 0.00 70 1023.5
20260906142112 20 256 0.0 0.0 0.00 0.00 0.00 71 1023.2
20260906141611 20 81 1.6 3.2 0.00 0.00 0.00 72 1023.3
20260906141107 19 326 0.0 1.6 0.00 0.00 0.00 75 1023.2
20260906140605 19 266 0.0 3.2 0.00 0.00 0.00 76 1023.1
20260906140101 18 76 1.6 1.6 0.00 0.00 0.00 76 1023.4
20260906135557 18 18 0.0 1.6 0.00 0.00 0.00 79 1023.2
20260906135053 17 65 1.6 1.6 0.00 0.00 0.00 80 1023.3
20260906134549 17 92 1.6 1.6 0.00 0.00 0.00 80 1023.3
20260906134044 17 46 0.0 1.6 0.00 0.00 0.00 81 1023.4
20260906133539 16 94 3.2 3.2 0.00 0.00 0.00 82 1023.6
20260906133035 16 20 0.0 3.2 0.00 0.00 0.00 82 1023.5
20260906132535 16 43 1.6 1.6 0.00 0.00 0.00 82 1023.5
20260906132030 16 21 0.0 0.0 0.00 0.00 0.00 85 1023.5
20260906131525 16 17 0.0 0.0 0.00 0.00 0.00 85 1023.3
20260906131021 15 38 0.0 0.0 0.00 0.00 0.00 87 1023.4
20260906130520 15 18 0.0 1.6 0.00 0.00 0.00 89 1023.3
20260906130016 15 351 0.0 1.6 0.00 0.00 0.00 90 1023.4
20260906125513 15 27 0.0 1.6 0.00 0.00 0.00 91 1023.2
20260906125013 14 336 0.0 1.6 0.00 0.00 0.00 94 1023.2
20260906124508 14 65 1.6 1.6 0.00 0.00 0.00 95 1023.1
20260906124004 13 7 0.0 0.0 0.00 0.00 0.00 97 1023.0
20260906123502 13 43 0.0 1.6 0.00 0.00 0.00 98 1022.8
20260906122957 13 58 0.0 1.6 0.00 0.00 0.00 99 1022.7
20260906122452 13 20 0.0 0.0 0.00 0.00 0.00 99 1022.9
20260906121948 13 27 0.0 0.0 0.00 0.00 0.00 99 1022.9
20260906121444 13 33 0.0 1.6 0.00 0.00 0.00 99 1022.9
20260906120941 12 354 0.0 0.0 0.00 0.00 0.00 99 1022.9
20260906120441 12 354 0.0 0.0 0.00 0.00 0.00 99 1023.0
20260906115937 12 354 0.0 0.0 0.00 0.00 0.00 99 1022.9
20260906115432 12 354 0.0 0.0 0.00 0.00 0.00 99 1023.1
20260906114933 12 354 0.0 0.0 0.00 0.00 0.00 99 1023.0
20260906114432 12 354 0.0 0.0 0.00 0.00 0.00 99 1022.8
20260906113928 12 352 0.0 0.0 0.00 0.00 0.00 99 1022.7
20260906113426 12 352 0.0 0.0 0.00 0.00 0.00 99 1022.8
20260906112923 12 352 0.0 0.0 0.00 0.00 0.00 99 1022.9
20260906112418 12 352 0.0 0.0 0.00 0.00 0.00 99 1022.7
20260906111913 12 352 0.0 0.0 0.00 0.00 0.00 99 1022.7
20260906111413 12 351 0.0 0.0 0.00 0.00 0.00 99 1022.6
20260906110908 12 356 0.0 0.0 0.00 0.00 0.00 99 1022.6
20260906110403 12 357 0.0 0.0 0.00 0.00 0.00 99 1022.5
20260906105902 12 356 0.0 0.0 0.00 0.00 0.00 99 1022.5
20260906105358 12 355 0.0 0.0 0.00 0.00 0.00 99 1022.6
20260906104854 12 357 0.0 0.0 0.00 0.00 0.00 99 1022.4
20260906104352 12 357 0.0 0.0 0.00 0.00 0.00 99 1022.3
20260906103851 12 357 0.0 0.0 0.00 0.00 0.00 99 1022.3
20260906103350 12 357 0.0 0.0 0.00 0.00 0.00 98 1022.3
20260906102846 12 357 0.0 0.0 0.00 0.00 0.00 98 1022.4
20260906102344 12 356 0.0 0.0 0.00 0.00 0.00 98 1022.2
20260906101839 12 356 0.0 0.0 0.00 0.00 0.00 98 1022.2
20260906101334 12 356 0.0 0.0 0.00 0.00 0.00 98 1022.5
20260906100831 13 356 0.0 0.0 0.00 0.00 0.00 98 1022.3
20260906100329 13 354 0.0 1.6 0.00 0.00 0.00 98 1022.2
20260906095825 12 356 0.0 0.0 0.00 0.00 0.00 98 1021.9
20260906095320 13 356 0.0 0.0 0.00 0.00 0.00 98 1022.2
20260906094819 13 356 0.0 0.0 0.00 0.00 0.00 98 1021.9
20260906094315 13 356 0.0 0.0 0.00 0.00 0.00 98 1022.2
20260906093811 13 356 0.0 0.0 0.00 0.00 0.00 98 1022.3
20260906093307 13 352 0.0 0.0 0.00 0.00 0.00 98 1022.2
20260906092801 13 344 0.0 0.0 0.00 0.00 0.00 98 1022.2
20260906092255 13 351 0.0 0.0 0.00 0.00 0.00 97 1022.2
20260906091751 13 352 0.0 1.6 0.00 0.00 0.00 97 1022.2
20260906091247 13 4 0.0 0.0 0.00 0.00 0.00 97 1022.2
20260906090744 13 13 0.0 0.0 0.00 0.00 0.00 97 1022.0
20260906090242 13 23 0.0 0.0 0.00 0.00 0.00 97 1022.0
20260906085742 13 23 0.0 0.0 0.00 0.00 0.00 97 1022.2
20260906085241 13 33 0.0 0.0 0.00 0.00 0.00 97 1022.3
20260906084736 13 8 0.0 0.0 0.00 0.00 0.00 97 1022.4
20260906084236 13 7 0.0 0.0 0.00 0.00 0.00 96 1022.5
20260906083732 13 11 0.0 0.0 0.00 0.00 0.00 96 1022.4
20260906083227 13 13 0.0 0.0 0.00 0.00 0.00 96 1022.3
20260906082722 13 8 0.0 0.0 0.00 0.00 0.00 96 1022.0
20260906082217 13 7 0.0 0.0 0.00 0.00 0.00 96 1022.0
20260906081713 13 6 0.0 0.0 0.00 0.00 0.00 96 1022.2
20260906081207 13 354 0.0 0.0 0.00 0.00 0.00 96 1022.0
20260906080704 14 3 0.0 0.0 0.00 0.00 0.00 96 1022.0
20260906080200 14 8 0.0 0.0 0.00 0.00 0.00 96 1021.9
20260906075659 14 8 0.0 0.0 0.00 0.00 0.00 96 1021.8
20260906075154 14 9 0.0 0.0 0.00 0.00 0.00 96 1021.8
20260906074649 14 9 0.0 0.0 0.00 0.00 0.00 96 1021.9
20260906074148 14 7 0.0 0.0 0.00 0.00 0.00 96 1021.8
20260906073643 14 7 0.0 0.0 0.00 0.00 0.00 96 1021.7
20260906073139 14 3 0.0 0.0 0.00 0.00 0.00 95 1021.8
20260906072634 14 3 0.0 0.0 0.00 0.00 0.00 95 1021.8
20260906072130 14 5 0.0 0.0 0.00 0.00 0.00 95 1021.7
20260906071627 14 16 0.0 0.0 0.00 0.00 0.00 95 1021.7
20260906071126 15 18 0.0 0.0 0.00 0.00 0.00 94 1021.9
20260906070623 15 18 0.0 0.0 0.00 0.00 0.00 95 1021.6
20260906070118 15 21 0.0 0.0 0.00 0.00 0.00 94 1021.8
20260906065618 15 8 0.0 0.0 0.00 0.00 0.00 93 1021.8
20260906065113 15 8 0.0 0.0 0.00 0.00 0.00 93 1021.7
20260906064609 15 8 0.0 0.0 0.00 0.00 0.00 92 1022.0
20260906064104 15 8 0.0 0.0 0.00 0.00 0.00 92 1021.7
20260906063559 15 9 0.0 0.0 0.00 0.00 0.00 92 1021.8
20260906063055 15 9 0.0 0.0 0.00 0.00 0.00 91 1021.8
20260906062550 15 2 0.0 0.0 0.00 0.00 0.00 91 1021.7
20260906062044 15 6 0.0 0.0 0.00 0.00 0.00 91 1021.8
20260906061541 15 7 0.0 0.0 0.00 0.00 0.00 91 1021.6
20260906061040 15 6 0.0 0.0 0.00 0.00 0.00 91 1021.6
20260906060537 15 3 0.0 0.0 0.00 0.00 0.00 90 1021.6
20260906060034 15 8 0.0 0.0 0.00 0.00 0.00 90 1021.5
20260906055529 15 7 0.0 0.0 0.00 0.00 0.00 88 1021.6
20260906055025 15 9 0.0 0.0 0.00 0.00 0.00 87 1021.5
20260906054524 16 6 0.0 0.0 0.00 0.00 0.00 87 1021.5
20260906054020 16 4 0.0 0.0 0.00 0.00 0.00 85 1021.3
20260906053516 16 14 0.0 0.0 0.00 0.00 0.00 84 1021.3
20260906053012 16 13 0.0 0.0 0.00 0.00 0.00 84 1021.3
20260906052507 15 13 0.0 0.0 0.00 0.00 0.00 86 1021.2
20260906052004 15 9 0.0 0.0 0.00 0.00 0.00 86 1021.1
20260906051459 16 9 0.0 0.0 0.00 0.00 0.00 87 1021.1
20260906050954 16 3 0.0 0.0 0.00 0.00 0.00 88 1021.0
20260906050453 16 3 0.0 0.0 0.00 0.00 0.00 88 1021.0
20260906045948 16 2 0.0 0.0 0.00 0.00 0.00 87 1021.1
20260906045447 16 2 0.0 0.0 0.00 0.00 0.00 87 1020.9
20260906044943 16 0 0.0 0.0 0.00 0.00 0.00 88 1020.8
20260906044438 16 0 0.0 0.0 0.00 0.00 0.00 87 1021.0
20260906043934 16 357 0.0 0.0 0.00 0.00 0.00 86 1020.9
20260906043429 17 19 0.0 0.0 0.00 0.00 0.00 84 1020.7
20260906042925 17 20 0.0 0.0 0.00 0.00 0.00 84 1020.9
20260906042423 17 20 0.0 0.0 0.00 0.00 0.00 84 1021.0
20260906041918 17 14 0.0 0.0 0.00 0.00 0.00 84 1021.2
20260906041414 17 11 0.0 0.0 0.00 0.00 0.00 84 1021.1
20260906040914 17 3 0.0 0.0 0.00 0.00 0.00 83 1020.9
20260906040409 17 15 0.0 0.0 0.00 0.00 0.00 82 1021.1
20260906035905 17 26 0.0 3.2 0.00 0.00 0.00 83 1021.0
20260906035400 17 9 0.0 0.0 0.00 0.00 0.00 83 1020.9
20260906034855 17 1 0.0 1.6 0.00 0.00 0.00 83 1020.8
20260906034349 17 1 0.0 0.0 0.00 0.00 0.00 83 1020.7
20260906033846 17 25 0.0 0.0 0.00 0.00 0.00 82 1020.6
20260906033344 17 2 0.0 0.0 0.00 0.00 0.00 82 1020.9
20260906032841 18 25 0.0 0.0 0.00 0.00 0.00 82 1020.7
20260906032337 17 0 0.0 0.0 0.00 0.00 0.00 83 1020.6
20260906031833 18 20 0.0 0.0 0.00 0.00 0.00 82 1020.8
20260906031328 18 25 0.0 0.0 0.00 0.00 0.00 81 1020.8
20260906030827 18 21 0.0 0.0 0.00 0.00 0.00 82 1020.7
20260906030323 18 28 0.0 0.0 0.00 0.00 0.00 81 1020.9
20260906025822 18 16 0.0 0.0 0.00 0.00 0.00 81 1020.8
20260906025316 18 28 0.0 0.0 0.00 0.00 0.00 80 1020.6
20260906024816 19 17 0.0 0.0 0.00 0.00 0.00 80 1020.9
20260906024315 19 30 1.6 1.6 0.00 0.00 0.00 79 1020.7
20260906023810 19 78 1.6 6.4 0.00 0.00 0.00 78 1020.7
20260906023306 20 36 0.0 3.2 0.00 0.00 0.00 78 1020.6
20260906022801 20 63 0.0 1.6 0.00 0.00 0.00 79 1020.5
20260906022256 20 46 0.0 1.6 0.00 0.00 0.00 78 1020.4
20260906021752 20 37 0.0 3.2 0.00 0.00 0.00 78 1020.4
20260906021251 20 86 1.6 3.2 0.00 0.00 0.00 78 1020.4
20260906020746 20 86 1.6 3.2 0.00 0.00 0.00 77 1020.3
20260906020240 20 90 1.6 3.2 0.00 0.00 0.00 77 1020.3
20260906015735 20 80 1.6 4.8 0.00 0.00 0.00 77 1020.4
20260906015233 20 78 3.2 3.2 0.00 0.00 0.00 76 1020.4
20260906014728 20 31 1.6 3.2 0.00 0.00 0.00 77 1020.2
20260906014224 20 38 3.2 4.8 0.00 0.00 0.00 76 1020.2
20260906013715 21 56 1.6 1.6 0.00 0.00 0.00 76 1020.1
20260906013215 21 52 3.2 3.2 0.00 0.00 0.00 76 1020.0
20260906012710 21 62 1.6 3.2 0.00 0.00 0.00 76 1020.0
20260906012209 21 32 0.0 1.6 0.00 0.00 0.00 77 1020.0
20260906011705 21 45 1.6 1.6 0.00 0.00 0.00 77 1019.9
20260906011200 21 53 1.6 3.2 0.00 0.00 0.00 75 1019.9
20260906010655 21 22 0.0 0.0 0.00 0.00 0.00 75 1020.0
20260906010151 21 116 0.0 3.2 0.00 0.00 0.00 74 1020.0
20260906005651 22 53 3.2 4.8 0.00 0.00 0.00 73 1019.8
20260906005150 22 33 3.2 4.8 0.00 0.00 0.00 73 1019.6
20260906004649 22 48 3.2 6.4 0.00 0.00 0.00 71 1019.6
20260906004144 22 48 4.8 9.7 0.00 0.00 0.00 69 1019.7
20260906003639 22 74 1.6 1.6 0.00 0.00 0.00 68 1019.7
20260906003135 22 3 0.0 0.0 0.00 0.00 0.00 65 1019.5
20260906002630 22 15 0.0 0.0 0.00 0.00 0.00 65 1019.7
20260906002125 23 14 0.0 0.0 0.00 0.00 0.00 63 1019.6
20260906001620 23 16 0.0 0.0 0.00 0.00 0.00 63 1019.3
20260906001120 23 18 0.0 0.0 0.00 0.00 0.00 64 1019.4
20260906000616 23 20 0.0 0.0 0.00 0.00 0.00 62 1019.5
20260906000111 23 24 0.0 1.6 0.00 0.00 0.00 61 1019.3
20260905235610 24 25 0.0 1.6 0.00 0.00 0.00 59 1019.5
20260905235105 25 21 0.0 0.0 0.00 0.00 0.00 58 1019.3
20260905234601 25 25 0.0 0.0 0.00 0.00 0.00 57 1019.5
20260905234055 25 35 0.0 1.6 0.00 0.00 0.00 54 1019.5
20260905233555 25 10 0.0 0.0 0.00 0.00 0.00 55 1019.2
20260905233050 25 17 0.0 1.6 0.00 0.00 0.00 56 1019.3
20260905232545 26 40 1.6 3.2 0.00 0.00 0.00 55 1019.4
20260905232041 25 15 1.6 1.6 0.00 0.00 0.00 54 1019.3
20260905231536 25 29 0.0 1.6 0.00 0.00 0.00 55 1019.2
20260905231032 26 55 3.2 3.2 0.00 0.00 0.00 55 1019.5
20260905230531 27 23 1.6 3.2 0.00 0.00 0.00 53 1019.5
20260905230030 26 1 1.6 3.2 0.00 0.00 0.00 53 1019.4
20260905225525 26 0 0.0 3.2 0.00 0.00 0.00 54 1019.3
20260905225020 26 60 0.0 1.6 0.00 0.00 0.00 53 1019.4
20260905224515 27 19 0.0 0.0 0.00 0.00 0.00 50 1019.3
20260905224014 27 347 0.0 1.6 0.00 0.00 0.00 49 1019.2
20260905223512 26 22 0.0 3.2 0.00 0.00 0.00 52 1019.3
20260905223008 26 30 0.0 1.6 0.00 0.00 0.00 54 1019.5
20260905222507 25 26 1.6 1.6 0.00 0.00 0.00 57 1019.4
20260905222003 25 35 1.6 3.2 0.00 0.00 0.00 58 1019.6
20260905221459 25 43 3.2 3.2 0.00 0.00 0.00 55 1019.6
20260905220955 25 11 0.0 1.6 0.00 0.00 0.00 56 1019.3
20260905220451 25 44 1.6 3.2 0.00 0.00 0.00 57 1019.5
20260905215950 26 29 1.6 3.2 0.00 0.00 0.00 55 1019.5
20260905215445 26 356 3.2 3.2 0.00 0.00 0.00 53 1019.5
20260905214942 27 312 1.6 3.2 0.00 0.00 0.00 51 1019.5
20260905214432 26 15 3.2 4.8 0.00 0.00 0.00 51 1019.7
20260905213931 27 22 3.2 4.8 0.00 0.00 0.00 54 1019.5
20260905213427 27 336 0.0 4.8 0.00 0.00 0.00 52 1019.5
20260905212922 27 359 0.0 4.8 0.00 0.00 0.00 51 1019.4
20260905212418 27 330 0.0 1.6 0.00 0.00 0.00 52 1019.4
20260905211917 26 79 3.2 6.4 0.00 0.00 0.00 52 1019.3
20260905211413 26 102 3.2 6.4 0.00 0.00 0.00 53 1019.4
20260905210908 26 267 3.2 4.8 0.00 0.00 0.00 52 1019.4
20260905210403 26 165 6.4 9.7 0.00 0.00 0.00 52 1019.2
20260905205902 26 213 1.6 4.8 0.00 0.00 0.00 51 1019.3
20260905205356 26 330 3.2 9.7 0.00 0.00 0.00 52 1018.9
20260905204855 25 86 3.2 4.8 0.00 0.00 0.00 55 1018.9
20260905204352 26 125 4.8 11.3 0.00 0.00 0.00 52 1018.9
20260905203850 26 37 4.8 6.4 0.00 0.00 0.00 56 1018.9
20260905203346 26 340 8.0 9.7 0.00 0.00 0.00 55 1019.3
20260905202842 26 343 0.0 1.6 0.00 0.00 0.00 55 1019.4
20260905202336 26 329 0.0 4.8 0.00 0.00 0.00 52 1019.3
20260905201833 25 93 3.2 3.2 0.00 0.00 0.00 55 1019.3
20260905201328 25 19 0.0 1.6 0.00 0.00 0.00 55 1019.4
20260905200828 25 357 0.0 3.2 0.00 0.00 0.00 58 1019.3
20260905200325 25 39 3.2 4.8 0.00 0.00 0.00 57 1019.5
20260905195821 27 321 6.4 9.7 0.00 0.00 0.00 54 1019.4
20260905195317 27 319 3.2 3.2 0.00 0.00 0.00 52 1019.4
20260905194813 26 270 1.6 3.2 0.00 0.00 0.00 52 1019.3
20260905194312 26 21 1.6 4.8 0.00 0.00 0.00 52 1019.7
20260905193812 26 11 3.2 12.9 0.00 0.00 0.00 57 1019.4
20260905193307 26 70 4.8 9.7 0.00 0.00 0.00 55 1019.6
20260905192802 26 5 1.6 4.8 0.00 0.00 0.00 54 1019.5
20260905192258 26 57 3.2 6.4 0.00 0.00 0.00 57 1019.4
20260905191757 27 119 1.6 3.2 0.00 0.00 0.00 52 1019.7
20260905191256 25 61 3.2 6.4 0.00 0.00 0.00 55 1019.6
20260905190755 25 59 1.6 4.8 0.00 0.00 0.00 57 1019.5
20260905190254 25 57 6.4 6.4 0.00 0.00 0.00 57 1019.5
20260905185753 25 40 1.6 6.4 0.00 0.00 0.00 61 1019.5
20260905185248 25 40 3.2 6.4 0.00 0.00 0.00 60 1019.8
20260905184742 26 6 1.6 9.7 0.00 0.00 0.00 57 1019.5
20260905184242 26 166 1.6 3.2 0.00 0.00 0.00 55 1019.6
20260905183740 26 23 0.0 4.8 0.00 0.00 0.00 54 1019.7
20260905183236 26 17 1.6 3.2 0.00 0.00 0.00 55 1019.7
20260905182731 25 103 1.6 3.2 0.00 0.00 0.00 57 1019.8
20260905182230 25 331 1.6 3.2 0.00 0.00 0.00 59 1020.1
20260905181725 25 34 1.6 4.8 0.00 0.00 0.00 59 1020.0
20260905181224 25 113 6.4 9.7 0.00 0.00 0.00 58 1020.2
20260905180720 24 180 1.6 3.2 0.00 0.00 0.00 60 1020.1
20260905180215 24 273 3.2 4.8 0.00 0.00 0.00 61 1020.2
20260905175714 23 36 3.2 6.4 0.00 0.00 0.00 62 1020.1
20260905175209 23 21 1.6 6.4 0.00 0.00 0.00 67 1020.1
20260905174704 23 41 1.6 3.2 0.00 0.00 0.00 66 1020.0
20260905174200 23 79 0.0 3.2 0.00 0.00 0.00 63 1020.0